Total_Precipitation_Accumulation
0.06 0.04 0.04 0.05 0.06 0.09 0.12 0.14 0.15 0.14 0.13 0.14 0.16 0.18 0.19 0.21 0.25 0.31 0.34 0.38 0.48 0.60 0.69 0.73 0.75 0.77 0.81 0.79 0.85 0.86 0.81 0.89 0.89 0.75 0.81 0.87 0.77 0.59 0.48 0.46 0.47 0.50 0.47
0.04 0.04 0.04 0.04 0.04 0.05 0.08 0.11 0.12 0.13 0.13 0.13 0.13 0.14 0.14 0.15 0.21 0.31 0.42 0.44 0.47 0.55 0.77 0.99 1.01 1.01 0.93 0.85 0.93 0.91 0.87 1.01 0.97 0.86 0.94 0.97 0.91 0.73 0.58 0.49 0.42 0.42 0.45
0.02 0.03 0.03 0.03 0.03 0.04 0.05 0.07 0.09 0.11 0.13 0.13 0.14 0.13 0.13 0.12 0.14 0.22 0.35 0.40 0.49 0.63 0.79 0.92 1.04 1.16 1.06 0.96 0.94 0.93 0.96 1.05 1.03 0.93 0.97 1.11 1.14 0.95 0.70 0.49 0.38 0.38 0.40
0.02 0.03 0.04 0.04 0.05 0.05 0.04 0.04 0.05 0.08 0.11 0.13 0.14 0.14 0.14 0.12 0.12 0.18 0.26 0.34 0.47 0.65 0.72 0.67 0.78 1.03 1.14 1.06 0.95 0.90 0.94 0.99 0.99 1.01 1.06 1.20 1.25 1.19 0.93 0.65 0.48 0.38 0.34
0.06 0.08 0.08 0.08 0.09 0.09 0.09 0.09 0.08 0.09 0.10 0.13 0.16 0.16 0.16 0.13 0.11 0.18 0.27 0.23 0.29 0.37 0.42 0.41 0.47 0.65 0.92 1.09 1.03 0.93 0.93 0.90 0.91 1.00 1.08 1.18 1.21 1.24 1.08 0.82 0.62 0.51 0.41
0.09 0.09 0.09 0.12 0.11 0.11 0.11 0.11 0.11 0.12 0.15 0.19 0.22 0.23 0.21 0.15 0.12 0.13 0.16 0.18 0.21 0.24 0.27 0.31 0.32 0.33 0.44 0.66 0.87 0.98 1.02 0.96 0.90 0.94 1.08 1.13 1.13 1.13 1.11 0.97 0.75 0.59 0.48
0.10 0.11 0.14 0.17 0.18 0.17 0.16 0.15 0.15 0.17 0.21 0.25 0.29 0.32 0.32 0.30 0.20 0.12 0.09 0.13 0.17 0.21 0.26 0.30 0.24 0.20 0.29 0.38 0.51 0.64 0.78 0.84 0.85 0.91 0.99 1.09 1.16 1.26 1.24 1.08 0.89 0.75 0.61
0.16 0.17 0.22 0.26 0.27 0.27 0.27 0.24 0.26 0.29 0.30 0.32 0.34 0.37 0.42 0.39 0.27 0.18 0.14 0.12 0.17 0.22 0.28 0.31 0.31 0.29 0.31 0.38 0.45 0.47 0.52 0.58 0.61 0.67 0.79 0.97 1.16 1.32 1.43 1.33 1.18 0.96 0.82
0.25 0.27 0.32 0.39 0.45 0.44 0.41 0.41 0.42 0.42 0.39 0.38 0.38 0.43 0.47 0.50 0.38 0.25 0.21 0.21 0.26 0.27 0.29 0.31 0.35 0.35 0.32 0.29 0.37 0.40 0.42 0.45 0.48 0.56 0.63 0.82 1.09 1.30 1.37 1.40 1.28 1.06 0.87
0.35 0.34 0.37 0.46 0.56 0.58 0.55 0.55 0.57 0.57 0.53 0.49 0.46 0.49 0.54 0.61 0.52 0.31 0.26 0.30 0.35 0.37 0.44 0.46 0.38 0.34 0.32 0.24 0.30 0.38 0.38 0.40 0.47 0.51 0.57 0.62 0.75 1.02 1.25 1.15 1.07 1.00 0.86
0.35 0.38 0.40 0.47 0.57 0.57 0.61 0.65 0.66 0.66 0.66 0.64 0.59 0.58 0.62 0.66 0.64 0.42 0.32 0.32 0.42 0.53 0.55 0.56 0.55 0.40 0.27 0.23 0.26 0.34 0.32 0.39 0.55 0.62 0.64 0.69 0.77 0.89 1.05 1.07 0.98 0.89 0.83
0.29 0.31 0.34 0.42 0.49 0.50 0.60 0.64 0.68 0.69 0.70 0.71 0.72 0.69 0.69 0.72 0.65 0.53 0.34 0.29 0.40 0.58 0.67 0.71 0.72 0.54 0.35 0.28 0.25 0.26 0.25 0.28 0.43 0.56 0.63 0.66 0.70 0.79 0.90 1.03 1.05 1.00 0.88
0.32 0.32 0.35 0.42 0.56 0.68 0.71 0.67 0.71 0.75 0.73 0.72 0.76 0.78 0.77 0.78 0.71 0.50 0.38 0.29 0.35 0.53 0.69 0.78 0.72 0.60 0.51 0.41 0.34 0.30 0.29 0.28 0.38 0.48 0.55 0.59 0.59 0.66 0.89 1.16 1.29 1.30 1.19
0.39 0.39 0.40 0.45 0.57 0.81 0.93 0.87 0.80 0.79 0.77 0.77 0.75 0.77 0.82 0.88 0.86 0.69 0.52 0.40 0.43 0.56 0.66 0.69 0.69 0.69 0.68 0.63 0.52 0.42 0.35 0.36 0.41 0.48 0.58 0.68 0.77 0.86 0.96 1.11 1.28 1.32 1.29
0.39 0.38 0.38 0.44 0.57 0.79 0.95 0.94 0.79 0.76 0.74 0.74 0.73 0.73 0.71 0.70 0.68 0.60 0.52 0.52 0.59 0.68 0.70 0.77 0.79 0.85 0.89 0.88 0.82 0.74 0.67 0.63 0.59 0.59 0.71 0.84 0.89 0.93 0.97 1.07 1.19 1.20 1.09
0.48 0.44 0.44 0.47 0.56 0.76 0.97 1.03 0.83 0.65 0.63 0.61 0.56 0.54 0.51 0.44 0.40 0.42 0.40 0.40 0.47 0.53 0.55 0.72 0.84 0.94 1.02 1.04 1.05 0.98 0.90 0.83 0.76 0.78 0.84 0.92 0.96 0.96 0.98 1.08 1.17 1.16 1.03
0.47 0.44 0.42 0.43 0.47 0.59 0.84 1.09 1.12 0.86 0.65 0.55 0.43 0.34 0.31 0.27 0.30 0.35 0.41 0.38 0.38 0.40 0.42 0.57 0.73 0.86 0.99 1.06 1.08 1.02 0.96 0.91 0.89 0.91 0.96 0.98 1.02 1.02 1.02 1.04 1.12 1.15 1.06
0.41 0.38 0.36 0.36 0.38 0.47 0.69 0.97 1.17 1.15 0.98 0.73 0.45 0.28 0.24 0.22 0.25 0.36 0.43 0.41 0.39 0.36 0.36 0.48 0.61 0.76 0.90 1.04 1.10 1.07 1.04 1.02 0.96 0.93 1.00 1.02 1.04 1.07 1.04 1.00 1.04 1.09 1.07
0.37 0.33 0.30 0.31 0.32 0.37 0.56 0.83 1.05 1.13 1.08 0.96 0.68 0.37 0.26 0.25 0.30 0.41 0.44 0.46 0.48 0.44 0.43 0.47 0.54 0.65 0.83 1.00 1.09 1.14 1.15 1.09 0.98 0.97 0.99 1.03 1.02 1.06 1.03 0.97 1.00 1.10 1.10
0.31 0.25 0.20 0.22 0.25 0.30 0.42 0.66 0.92 1.07 1.03 0.98 0.83 0.48 0.28 0.27 0.37 0.51 0.58 0.65 0.64 0.56 0.52 0.53 0.56 0.65 0.81 0.99 1.09 1.13 1.18 1.12 1.05 1.02 1.00 1.03 1.04 1.04 1.02 0.97 0.96 1.00 0.96
0.27 0.22 0.15 0.15 0.24 0.30 0.37 0.55 0.81 0.99 0.96 0.88 0.76 0.46 0.28 0.32 0.45 0.57 0.70 0.75 0.74 0.68 0.65 0.61 0.61 0.67 0.79 0.93 1.02 1.06 1.12 1.10 1.05 1.03 1.01 1.02 1.05 1.04 1.07 1.05 0.97 0.95 0.94
0.23 0.23 0.21 0.22 0.28 0.32 0.36 0.54 0.76 0.91 0.88 0.83 0.74 0.51 0.36 0.42 0.53 0.63 0.69 0.69 0.66 0.61 0.59 0.64 0.67 0.71 0.78 0.85 0.92 1.01 1.06 1.07 1.06 1.04 1.04 1.04 1.06 1.05 1.08 1.08 1.01 0.97 0.95
0.20 0.22 0.22 0.24 0.29 0.28 0.39 0.57 0.72 0.79 0.78 0.74 0.64 0.52 0.49 0.53 0.55 0.60 0.63 0.63 0.62 0.60 0.59 0.65 0.71 0.75 0.80 0.83 0.86 0.93 0.97 0.95 0.96 0.96 1.00 1.03 1.05 1.04 1.03 1.01 0.97 0.96 0.90
0.20 0.24 0.26 0.28 0.30 0.38 0.48 0.61 0.67 0.66 0.65 0.63 0.59 0.59 0.61 0.62 0.58 0.56 0.61 0.64 0.67 0.69 0.69 0.67 0.69 0.69 0.71 0.74 0.77 0.78 0.81 0.78 0.75 0.77 0.82 0.89 0.94 0.94 0.93 0.94 0.94 0.92 0.89
0.18 0.22 0.28 0.34 0.38 0.44 0.53 0.62 0.64 0.62 0.57 0.54 0.55 0.58 0.59 0.56 0.58 0.61 0.66 0.69 0.70 0.68 0.64 0.63 0.65 0.63 0.61 0.60 0.60 0.61 0.63 0.56 0.49 0.52 0.61 0.74 0.81 0.82 0.81 0.83 0.87 0.88 0.88
0.17 0.19 0.25 0.30 0.34 0.38 0.48 0.57 0.56 0.51 0.47 0.47 0.50 0.57 0.58 0.59 0.63 0.66 0.68 0.72 0.74 0.71 0.69 0.66 0.61 0.59 0.58 0.57 0.55 0.55 0.49 0.39 0.34 0.36 0.41 0.55 0.69 0.74 0.77 0.82 0.83 0.88 0.86